Sanderson, TX

7:39 AM CDT on September 26, 2016 (GMT -0500)
Dryden

Weather History for K6R6 - October, 2012

Change the Weather History Date:

Monday, October 15, 2012

  Actual Average (KFST) Record (KFST)
Temperature  
Mean Temperature 72 °F -  
Max Temperature 79 °F 77 °F 91 °F (1998)
Min Temperature 64 °F 52 °F 42 °F (1997)
Cooling Degree Days 6    
Growing Degree Days 22 (Base 50)    
Moisture  
Dew Point 48 °F    
Average Humidity 44    
Maximum Humidity 65    
Minimum Humidity 34    
Precipitation  
Precipitation 0.00 in - - ()
Sea Level Pressure  
Sea Level Pressure 30.01 in    
Wind  
Wind Speed 7 mph (ENE)    
Max Wind Speed 12 mph    
Max Gust Speed -    
Averages and records for this station are not official NWS values.
T = Trace of Precipitation, MM = Missing Value Source: NWS Daily Summary

Daily Weather History Graph

Daily Weather History Graph

Search for Another Location

Airport or City:

Trip Planner

Search our weather history database for the weather conditions in past years. The results will help you decide how hot, cold, wet, or windy it might be!

Date:

Astronomy

Oct. 15, 2012 Rise Set
Actual Time 7:51 AM CDT 7:17 PM CDT
Civil Twilight 7:26 AM CDT 7:41 PM CDT
Nautical Twilight 6:59 AM CDT 8:09 PM CDT
Astronomical Twilight 6:31 AM CDT 8:37 PM CDT
Moon 7:59 AM CDT (10/15) 7:24 PM CDT (10/15)
Length of Visible Light 12h 14m
Length of Day
11h 26m
New Moon, 0% of the Moon is Illuminated
Oct 15
New Moon
Oct 21
First Quarter
Oct 29
Full
Nov 6
Last Quarter
Nov 13
New

Hourly Weather History & Observations

Time (CDT) Temp. Dew Point Humidity Pressure Visibility Wind Dir Wind Speed Gust Speed Precip Events Conditions
12:53 AM 70.0 °F 44.1 °F 39% 30.06 in - North 8.1 mph - N/A   Unknown
1:53 AM 69.1 °F 43.0 °F 39% 30.06 in - North 6.9 mph - N/A   Unknown
2:53 AM 69.1 °F 43.0 °F 39% 30.06 in - North 8.1 mph - N/A   Unknown
3:53 AM 68.0 °F 43.0 °F 40% 30.04 in - North 8.1 mph - N/A   Unknown
4:53 AM 66.9 °F 43.0 °F 42% 30.04 in - North 9.2 mph - N/A   Unknown
5:53 AM 66.0 °F 43.0 °F 43% 30.05 in - North 8.1 mph - N/A   Unknown
6:53 AM 66.0 °F 43.0 °F 43% 30.06 in - North 6.9 mph - N/A   Unknown
7:53 AM 64.9 °F 43.0 °F 45% 30.07 in - North 6.9 mph - N/A   Unknown
8:53 AM 66.9 °F 45.0 °F 45% 30.08 in - NE 5.8 mph - N/A   Unknown
9:53 AM 69.1 °F 45.0 °F 42% 30.09 in - NNE 8.1 mph - N/A   Unknown
10:53 AM 71.1 °F 45.0 °F 39% 30.08 in - NE 6.9 mph - N/A   Unknown
11:53 AM 75.0 °F 46.0 °F 36% 30.06 in - East 5.8 mph - N/A   Unknown
1:53 PM 78.1 °F 48.9 °F 36% 30.01 in - SE 11.5 mph - N/A   Unknown
2:53 PM 79.0 °F 48.0 °F 34% 29.97 in - ESE 9.2 mph - N/A   Unknown
3:53 PM 78.1 °F 48.0 °F 35% 29.95 in - SE 9.2 mph - N/A   Unknown
4:53 PM 78.1 °F 48.9 °F 36% 29.94 in - SE 8.1 mph - N/A   Unknown
5:53 PM 77.0 °F 51.1 °F 40% 29.94 in - ESE 6.9 mph - N/A   Unknown
6:53 PM 75.9 °F 53.1 °F 45% 29.94 in - East 5.8 mph - N/A   Unknown
7:53 PM 73.0 °F 55.0 °F 53% 29.94 in - ESE 5.8 mph - N/A   Unknown
8:53 PM 72.0 °F 55.9 °F 57% 29.94 in - East 3.5 mph - N/A   Unknown
9:53 PM 71.1 °F 57.0 °F 61% 29.95 in - East 3.5 mph - N/A   Unknown
10:53 PM 70.0 °F 57.9 °F 65% 29.94 in - NE 3.5 mph - N/A   Unknown
11:53 PM 70.0 °F 57.9 °F 65% 29.92 in - NNE 4.6 mph - N/A   Unknown